This is the latest recevied weather packets stored in our database for station/object N2XP. If no packets are shown the sender has not sent any weather packets the latest 10 day(s).
| Time | Temp. | Humidity | Pressure | Rain* | Wind** | Luminosity | Snow |
|---|---|---|---|---|---|---|---|
| 1777594566 | 10.56° C | 80% | 1007.1 hPa | 0 mm | - | - | - |
| 1777593662 | 10.56° C | 77% | 1006.8 hPa | 0 mm | - | - | - |
| 1777592764 | 11.11° C | 75% | 1006.5 hPa | 0 mm | - | - | - |
| 1777591859 | 11.67° C | 73% | 1006.3 hPa | 0 mm | - | - | - |
| 1777590973 | 12.22° C | 71% | 1006.1 hPa | 0 mm | - | - | - |
| 1777590058 | 12.78° C | 66% | 1006.1 hPa | 0 mm | - | - | - |
| 1777589154 | 13.33° C | 67% | 1006.1 hPa | 0 mm | - | - | - |
| 1777588253 | 13.89° C | 69% | 1006 hPa | 0 mm | - | - | - |
| 1777587353 | 13.33° C | 67% | 1006.1 hPa | 0 mm | - | - | - |
| 1777586455 | 13.33° C | 73% | 1006 hPa | 0 mm | - | - | - |
| 1777585552 | 13.33° C | 69% | 1006 hPa | 0 mm | - | - | - |
| 1777584651 | 13.33° C | 68% | 1005.9 hPa | 0 mm | - | - | - |
| 1777583751 | 13.33° C | 67% | 1005.8 hPa | 0 mm | - | - | - |
| 1777582851 | 13.33° C | 70% | 1005.7 hPa | 0 mm | - | - | - |
| 1777581949 | 13.89° C | 70% | 1005.6 hPa | 0 mm | - | - | - |
| 1777581053 | 13.89° C | 70% | 1005.5 hPa | 0 mm | - | - | - |
| 1777580148 | 13.89° C | 71% | 1005.2 hPa | 0 mm | - | - | - |
| 1777579246 | 13.33° C | 71% | 1005.1 hPa | 0 mm | - | - | - |
| 1777578346 | 13.89° C | 70% | 1004.9 hPa | 0 mm | - | - | - |
| 1777577445 | 14.44° C | 73% | 1005 hPa | 0 mm | - | - | - |
| 1777576544 | 13.89° C | 73% | 1005.1 hPa | 0 mm | - | - | - |
| 1777575643 | 13.89° C | 73% | 1005 hPa | 0 mm | - | - | - |
| 1777574742 | 13.89° C | 73% | 1004.9 hPa | 0 mm | - | - | - |
| 1777573848 | 14.44° C | 77% | 1005 hPa | 0 mm | - | - | - |
| 1777572944 | 13.33° C | 83% | 1005.1 hPa | 0 mm | - | - | - |
* Rain latest hour (hover to see other rain measurements)
** Current wind speed in m/s (hover to see current wind gust speed)